Terminal Aerodrome Forecast
Issued by NWS Portland, ME

Home | Current Version | Previous Version | Text Only | Print | Product List | Glossary On
Versions: 1 2 3 4 5 6 7 8 9 10 11 12 13 14 15 16 17 18 19 20 21 22 23
000
FTUS41 KGYX 080357 AAA
TAFPWM
TAF AMD
KPWM 080357Z 0804/0824 05011G22KT P6SM SKC
     FM081000 03014G20KT P6SM BKN150
     FM081400 02020G26KT P6SM OVC060
      TEMPO 0814/0818 4SM -SN BR OVC020
     FM081800 01022G30KT 1SM -SN BR OVC015=

USA.gov is the U.S. government's official web portal to all federal, state and local government web resources and services.